Regional Weather Roundup
Issued by NWS

Home | Current Version | Previous Version | Text Only | Print | Product List | Glossary Off
Versions: 1 2 3 4 5 6 7 8 9 10 11 12 13 14 15 16 17 18 19 20 21 22 23 24 25 26 27 28 29 30 31 32 33 34 35 36 37 38 39 40 41 42 43 44 45 46 47 48 49 50

000
ASUS43 KBIS 231810
RWRND

NORTH DAKOTA REGIONAL WEATHER ROUNDUP
NATIONAL WEATHER SERVICE BISMARCK ND
100 PM CDT SAT JUL 23 2016

NOTE: "FAIR" INDICATES FEW OR NO CLOUDS BELOW 12,000 FEET WITH NO
SIGNIFICANT WEATHER AND/OR OBSTRUCTIONS TO VISIBILITY.


NDZ001>003-009>011-017-231900-
NORTHWEST NORTH DAKOTA

CITY           SKY/WX    TMP DP  RH WIND       PRES   REMARKS
WILLISTON      SUNNY     80  47  31 W23G32    29.83S
6HR MIN TEMP:  67; 6HR MAX TEMP:  81;

MINOT          CLOUDY    73  66  78 SW8       29.79S
MINOT AFB      CLOUDY    71  65  81 W9        29.78F
$$

NDZ018>021-031>035-040>046-231900-
SOUTHWEST NORTH DAKOTA

CITY           SKY/WX    TMP DP  RH WIND       PRES   REMARKS
BISMARCK       CLOUDY    76  67  73 CALM      29.79R
6HR MIN TEMP:  66; 6HR MAX TEMP:  77; 6HR PCP:  0.18;

DICKINSON      SUNNY     77  51  40 NW23      29.87R
GARRISON         N/A     72  66  81 W8        29.81S
6HR MIN TEMP:  64; 6HR MAX TEMP:  72; 6HR PCP:  0.17;

HETTINGER ARPT SUNNY     83  53  35 N26G37    29.90R
$$

NDZ004>008-012>016-024-026-027-054-231900-
NORTHEAST NORTH DAKOTA

CITY           SKY/WX    TMP DP  RH WIND       PRES   REMARKS
GRAND FORKS    TSTM      66  64  93 NE17      29.80F FOG
GRND FRKS AFB  LGT RAIN  66  64  94 NE18G26   29.74F
DEVILS LAKE    CLOUDY    69  65  86 SE12      29.73R
$$

NDZ022-023-025-028>030-036>039-047>053-231900-
SOUTHEAST NORTH DAKOTA

CITY           SKY/WX    TMP DP  RH WIND       PRES   REMARKS
FARGO          CLOUDY    78  69  73 S7        29.78R
6HR MIN TEMP:  73; 6HR MAX TEMP:  84;

JAMESTOWN      CLOUDY    72  68  87 E9        29.74F
$$





USA.gov is the U.S. government's official web portal to all federal, state and local government web resources and services.